ASA1484 PANC-KSEA

Flight info

Callsign ASA1484
Flight time 3h 0m
Altitude 35000
Route NOEND4 NOEND LAIRE BKA ANN VIXOR MARNR8
Aircraft B739/M-SDE2E3FGHIRWXY/LB1

Departure

Time 2026-05-03 22:45
Airport Ted Stevens Anchorage International Airport (PANC)

Arrival

Time 2026-05-04 01:45
Airport Seattle–Tacoma International Airport (KSEA)
Time Latitude Longitude Altitude Speed Heading
2026-05-03 22:29 61.17611 -149.98487 109 ft 0 kts 118°
2026-05-03 22:36 61.17612 -149.98493 109 ft 3 kts 118°
2026-05-03 22:36 61.17615 -149.98503 109 ft 4 kts 110°
2026-05-03 22:36 61.17616 -149.98554 107 ft 4 kts 73°
2026-05-03 22:37 61.17610 -149.98599 104 ft 3 kts 77°
2026-05-03 22:37 61.17606 -149.98651 103 ft 4 kts 97°
2026-05-03 22:37 61.17615 -149.98695 101 ft 4 kts 151°
2026-05-03 22:37 61.17638 -149.98715 101 ft 4 kts 160°
2026-05-03 22:38 61.17642 -149.98718 103 ft 1 kts 160°
2026-05-03 22:41 61.17640 -149.98717 102 ft 2 kts 160°
2026-05-03 22:41 61.17603 -149.98689 104 ft 7 kts 161°
2026-05-03 22:41 61.17557 -149.98654 105 ft 8 kts 159°
2026-05-03 22:41 61.17500 -149.98609 106 ft 10 kts 158°
2026-05-03 22:42 61.17433 -149.98567 107 ft 10 kts 178°
2026-05-03 22:42 61.17365 -149.98630 108 ft 12 kts 214°
2026-05-03 22:42 61.17286 -149.98737 110 ft 14 kts 212°
2026-05-03 22:42 61.17212 -149.98857 112 ft 13 kts 226°
2026-05-03 22:43 61.17155 -149.98997 125 ft 13 kts 231°
2026-05-03 22:43 61.17127 -149.99165 117 ft 12 kts 268°
2026-05-03 22:43 61.17124 -149.99343 120 ft 12 kts 268°
2026-05-03 22:43 61.17124 -149.99521 123 ft 13 kts 272°
2026-05-03 22:44 61.17122 -149.99710 125 ft 13 kts 270°
2026-05-03 22:44 61.17161 -149.99871 136 ft 14 kts 331°
2026-05-03 22:44 61.17263 -149.99934 126 ft 27 kts 344°
2026-05-03 22:44 61.17665 -150.00159 122 ft 91 kts 339°
2026-05-03 22:45 61.18463 -150.00615 126 ft 143 kts 344°
2026-05-03 22:45 61.19547 -150.01265 254 ft 173 kts 340°
2026-05-03 22:45 61.20716 -150.02013 821 ft 177 kts 345°
2026-05-03 22:45 61.21877 -150.02911 1379 ft 183 kts 334°
2026-05-03 22:46 61.22999 -150.04301 1849 ft 194 kts 329°
2026-05-03 22:46 61.24140 -150.05973 2196 ft 206 kts 325°
2026-05-03 22:46 61.25293 -150.07834 2520 ft 218 kts 322°
2026-05-03 22:46 61.26496 -150.09912 2874 ft 231 kts 321°
2026-05-03 22:47 61.27814 -150.12019 3202 ft 242 kts 333°
2026-05-03 22:47 61.29388 -150.12943 3896 ft 237 kts
2026-05-03 22:47 61.30926 -150.11893 4597 ft 234 kts 38°
2026-05-03 22:47 61.32118 -150.09639 5282 ft 235 kts 49°
2026-05-03 22:48 61.33257 -150.07127 5914 ft 240 kts 50°
2026-05-03 22:48 61.34406 -150.04566 6581 ft 243 kts 52°
2026-05-03 22:48 61.35304 -150.01658 7094 ft 243 kts 76°
2026-05-03 22:48 61.35361 -149.98130 7510 ft 251 kts 105°
2026-05-03 22:49 61.34548 -149.94826 7830 ft 263 kts 130°
2026-05-03 22:49 61.33311 -149.91965 8434 ft 267 kts 135°
2026-05-03 22:49 61.32029 -149.89215 9095 ft 269 kts 135°
2026-05-03 22:49 61.30725 -149.86393 9787 ft 271 kts 135°
2026-05-03 22:50 61.29420 -149.83532 10314 ft 279 kts 135°
2026-05-03 22:50 61.28032 -149.80473 10457 ft 299 kts 135°
2026-05-03 22:50 61.26697 -149.77015 10575 ft 321 kts 119°
2026-05-03 22:50 61.25981 -149.72490 10918 ft 334 kts 107°
2026-05-03 22:51 61.25407 -149.67754 11425 ft 340 kts 107°
2026-05-03 22:51 61.24810 -149.62952 11995 ft 344 kts 108°
2026-05-03 22:51 61.24259 -149.58115 12450 ft 351 kts 105°
2026-05-03 22:51 61.23772 -149.53100 12970 ft 356 kts 105°
2026-05-03 22:52 61.23285 -149.48010 13493 ft 361 kts 105°
2026-05-03 22:52 61.22781 -149.42889 14050 ft 363 kts 106°
2026-05-03 22:52 61.22266 -149.37744 14447 ft 371 kts 106°
2026-05-03 22:52 61.21753 -149.32456 14950 ft 375 kts 107°
2026-05-03 22:53 61.21237 -149.27111 15567 ft 379 kts 107°
2026-05-03 22:53 61.20718 -149.21743 16000 ft 388 kts 107°
2026-05-03 22:53 61.20179 -149.16186 16575 ft 394 kts 108°
2026-05-03 22:53 61.19630 -149.10538 17097 ft 401 kts 108°
2026-05-03 22:54 61.19082 -149.04892 17641 ft 406 kts 109°
2026-05-03 22:54 61.18525 -148.99122 18201 ft 411 kts 109°
2026-05-03 22:54 61.17952 -148.93265 18665 ft 416 kts 109°
2026-05-03 22:54 61.17365 -148.87339 19141 ft 420 kts 109°
2026-05-03 22:55 61.16784 -148.81465 19619 ft 421 kts 109°
2026-05-03 22:55 61.16188 -148.75463 20100 ft 424 kts 110°
2026-05-03 22:55 61.15587 -148.69448 20595 ft 429 kts 110°
2026-05-03 22:55 61.14982 -148.63409 20901 ft 435 kts 110°
2026-05-03 22:56 61.14367 -148.57253 21555 ft 434 kts 110°
2026-05-03 22:56 61.13742 -148.51094 22024 ft 437 kts 110°
2026-05-03 22:56 61.13007 -148.45071 22416 ft 433 kts 120°
2026-05-03 22:56 61.11762 -148.39447 22864 ft 428 kts 127°
2026-05-03 22:57 61.10378 -148.33950 23335 ft 429 kts 128°
2026-05-03 22:57 61.08973 -148.28543 23760 ft 432 kts 128°
2026-05-03 22:57 61.07540 -148.23036 24192 ft 435 kts 128°
2026-05-03 22:57 61.06112 -148.17496 24563 ft 438 kts 128°
2026-05-03 22:58 61.05168 -148.13794 24774 ft 441 kts 128°
2026-05-03 22:58 61.03273 -148.06301 25269 ft 445 kts 127°
2026-05-03 22:58 61.02326 -148.02533 25530 ft 446 kts 128°
2026-05-03 22:58 61.00892 -147.96809 25852 ft 449 kts 127°
2026-05-03 22:59 60.99449 -147.91053 26208 ft 452 kts 127°
2026-05-03 22:59 60.97996 -147.85265 26584 ft 455 kts 127°
2026-05-03 22:59 60.96547 -147.79519 26966 ft 458 kts 127°
2026-05-03 22:59 60.95070 -147.73676 27314 ft 462 kts 128°
2026-05-03 23:00 60.93570 -147.67770 27657 ft 464 kts 128°
2026-05-03 23:00 60.92068 -147.61864 28023 ft 466 kts 128°
2026-05-03 23:00 60.90573 -147.56005 28331 ft 470 kts 128°
2026-05-03 23:00 60.89044 -147.50021 28632 ft 473 kts 128°
2026-05-03 23:01 60.87503 -147.44002 28952 ft 475 kts 128°
2026-05-03 23:01 60.85976 -147.38047 29169 ft 479 kts 128°
2026-05-03 23:01 60.84408 -147.31964 29432 ft 482 kts 128°
2026-05-03 23:01 60.82827 -147.25845 29737 ft 484 kts 128°
2026-05-03 23:02 60.81258 -147.19787 30043 ft 486 kts 128°
2026-05-03 23:02 60.79663 -147.13640 30335 ft 489 kts 128°
2026-05-03 23:02 60.78073 -147.07532 30609 ft 490 kts 128°
2026-05-03 23:02 60.76469 -147.01382 30966 ft 488 kts 129°
2026-05-03 23:03 60.74864 -146.95236 31342 ft 487 kts 129°
2026-05-03 23:03 60.73281 -146.89198 31673 ft 486 kts 130°
2026-05-03 23:03 60.71679 -146.83110 31915 ft 486 kts 130°
2026-05-03 23:03 60.70052 -146.76958 32104 ft 489 kts 130°
2026-05-03 23:04 60.68450 -146.70918 32363 ft 490 kts 130°
2026-05-03 23:04 60.66830 -146.64812 32717 ft 488 kts 130°
2026-05-03 23:04 60.65214 -146.58733 33075 ft 486 kts 131°
2026-05-03 23:04 60.63594 -146.52657 33376 ft 486 kts 131°
2026-05-03 23:05 60.61968 -146.46583 33617 ft 487 kts 131°
2026-05-03 23:05 60.60358 -146.40585 33894 ft 487 kts 132°
2026-05-03 23:05 60.58731 -146.34536 34186 ft 486 kts 132°
2026-05-03 23:05 60.57118 -146.28556 34435 ft 485 kts 132°
2026-05-03 23:06 60.55486 -146.22525 34551 ft 487 kts 131°
2026-05-03 23:06 60.53841 -146.16470 34654 ft 489 kts 131°
2026-05-03 23:06 60.52209 -146.10479 34851 ft 490 kts 131°
2026-05-03 23:06 60.50554 -146.04409 35111 ft 489 kts 131°
2026-05-03 23:07 60.48902 -145.98358 35281 ft 489 kts 131°
2026-05-03 23:07 60.45598 -145.86322 35257 ft 489 kts 131°
2026-05-03 23:08 60.42281 -145.74283 35251 ft 486 kts 132°
2026-05-03 23:08 60.38989 -145.62410 35238 ft 483 kts 132°
2026-05-03 23:09 60.35663 -145.50509 35249 ft 488 kts 132°
2026-05-03 23:09 60.32299 -145.38545 35261 ft 493 kts 132°
2026-05-03 23:10 60.28919 -145.26546 35261 ft 494 kts 132°
2026-05-03 23:10 60.25514 -145.14516 35250 ft 494 kts 132°
2026-05-03 23:11 60.22083 -145.02455 35253 ft 493 kts 131°
2026-05-03 23:11 60.18670 -144.90539 35249 ft 494 kts 132°
2026-05-03 23:12 60.15219 -144.78551 35260 ft 494 kts 132°
2026-05-03 23:12 60.11783 -144.66679 35257 ft 494 kts 132°
2026-05-03 23:13 60.08319 -144.54768 35218 ft 493 kts 131°
2026-05-03 23:13 60.04880 -144.42999 35247 ft 492 kts 131°
2026-05-03 23:14 60.01454 -144.31184 35262 ft 492 kts 131°
2026-05-03 23:14 59.97966 -144.19389 35254 ft 490 kts 132°
2026-05-03 23:15 59.94478 -144.07742 35258 ft 490 kts 132°
2026-05-03 23:15 59.90976 -143.96054 35260 ft 490 kts 132°
2026-05-03 23:16 59.87474 -143.84383 35261 ft 490 kts 132°
2026-05-03 23:16 59.83972 -143.72760 35262 ft 490 kts 132°
2026-05-03 23:17 59.80469 -143.61197 35263 ft 490 kts 133°
2026-05-03 23:17 59.76953 -143.49646 35267 ft 490 kts 133°
2026-05-03 23:18 59.73431 -143.38136 35265 ft 489 kts 133°
2026-05-03 23:18 59.69879 -143.26587 35275 ft 490 kts 133°
2026-05-03 23:19 59.66330 -143.15106 35263 ft 491 kts 133°
2026-05-03 23:19 59.62763 -143.03620 35285 ft 491 kts 133°
2026-05-03 23:20 59.59164 -142.92090 35241 ft 492 kts 133°
2026-05-03 23:20 59.55571 -142.80631 35276 ft 492 kts 133°
2026-05-03 23:21 59.51961 -142.69177 35285 ft 493 kts 133°
2026-05-03 23:21 59.48317 -142.57673 35288 ft 494 kts 133°
2026-05-03 23:22 59.42858 -142.40547 35268 ft 495 kts 133°
2026-05-03 23:22 59.39194 -142.29119 35284 ft 495 kts 133°
2026-05-03 23:23 59.35507 -142.17673 35295 ft 495 kts 133°
2026-05-03 23:23 59.31826 -142.06306 35295 ft 496 kts 133°
2026-05-03 23:24 59.28131 -141.94947 35298 ft 496 kts 133°
2026-05-03 23:24 59.24404 -141.83545 35292 ft 495 kts 133°
2026-05-03 23:25 59.20703 -141.72279 35295 ft 495 kts 133°
2026-05-03 23:25 59.16962 -141.60946 35303 ft 496 kts 133°
2026-05-03 23:26 59.13224 -141.49678 35303 ft 496 kts 133°
2026-05-03 23:26 59.09473 -141.38424 35270 ft 496 kts 133°
2026-05-03 23:27 59.05703 -141.27161 35297 ft 496 kts 133°
2026-05-03 23:27 59.01943 -141.15987 35323 ft 496 kts 133°
2026-05-03 23:28 58.98139 -141.04734 35305 ft 497 kts 134°
2026-05-03 23:28 58.94336 -140.93536 35324 ft 498 kts 134°
2026-05-03 23:29 58.90540 -140.82409 35306 ft 498 kts 133°
2026-05-03 23:29 58.86702 -140.71208 35312 ft 498 kts 134°
2026-05-03 23:30 58.82873 -140.60072 35320 ft 499 kts 134°
2026-05-03 23:30 58.79002 -140.48908 35322 ft 499 kts 134°
2026-05-03 23:31 58.75101 -140.37876 35282 ft 499 kts 134°
2026-05-03 23:31 58.71170 -140.26838 35316 ft 498 kts 134°
2026-05-03 23:32 58.67274 -140.15920 35326 ft 499 kts 134°
2026-05-03 23:32 58.63333 -140.04903 35328 ft 499 kts 134°
2026-05-03 23:33 58.59410 -139.93984 35327 ft 499 kts 134°
2026-05-03 23:33 58.55455 -139.83018 35331 ft 498 kts 134°
2026-05-03 23:34 58.51498 -139.72110 35329 ft 498 kts 134°
2026-05-03 23:34 58.47539 -139.61248 35330 ft 498 kts 134°
2026-05-03 23:35 58.43582 -139.50436 35329 ft 498 kts 134°
2026-05-03 23:35 58.39594 -139.39591 35302 ft 499 kts 134°
2026-05-03 23:36 58.35618 -139.28823 35329 ft 498 kts 134°
2026-05-03 23:36 58.31604 -139.18004 35337 ft 498 kts 134°
2026-05-03 23:37 58.27603 -139.07271 35335 ft 499 kts 134°
2026-05-03 23:37 58.23593 -138.96560 35337 ft 499 kts 134°
2026-05-03 23:38 58.19555 -138.85822 35340 ft 499 kts 134°
2026-05-03 23:38 58.15521 -138.75144 35339 ft 500 kts 134°
2026-05-03 23:39 58.11457 -138.64434 35344 ft 500 kts 135°
2026-05-03 23:39 58.07410 -138.53815 35341 ft 500 kts 135°
2026-05-03 23:40 58.03323 -138.43136 35327 ft 499 kts 134°
2026-05-03 23:40 57.99270 -138.32595 35335 ft 499 kts 134°
2026-05-03 23:41 57.95185 -138.22024 35344 ft 498 kts 135°
2026-05-03 23:41 57.91087 -138.11463 35344 ft 499 kts 135°
2026-05-03 23:42 57.86979 -138.00923 35318 ft 499 kts 134°
2026-05-03 23:42 57.82890 -137.90477 35346 ft 499 kts 134°
2026-05-03 23:43 57.78764 -137.79980 35349 ft 499 kts 134°
2026-05-03 23:43 57.74648 -137.69557 35358 ft 500 kts 135°
2026-05-03 23:44 57.70517 -137.59143 35350 ft 500 kts 135°
2026-05-03 23:44 57.66342 -137.48660 35343 ft 500 kts 134°
2026-05-03 23:45 57.62191 -137.38282 35350 ft 501 kts 134°
2026-05-03 23:45 57.57998 -137.27848 35351 ft 502 kts 134°
2026-05-03 23:46 57.53817 -137.17487 35354 ft 502 kts 134°
2026-05-03 23:46 57.49596 -137.07073 35332 ft 503 kts 134°
2026-05-03 23:47 57.45394 -136.96747 35350 ft 503 kts 134°
2026-05-03 23:47 57.41860 -136.88101 35354 ft 504 kts 134°
2026-05-03 23:48 57.36912 -136.76046 35360 ft 504 kts 134°
2026-05-03 23:48 57.32663 -136.65741 35332 ft 505 kts 134°
2026-05-03 23:49 57.29087 -136.57101 35361 ft 505 kts 134°
2026-05-03 23:49 57.24815 -136.46823 35368 ft 506 kts 134°
2026-05-03 23:50 57.20528 -136.36552 35355 ft 507 kts 134°
2026-05-03 23:50 57.16202 -136.26230 35361 ft 507 kts 134°
2026-05-03 23:51 57.11891 -136.15988 35348 ft 508 kts 134°
2026-05-03 23:51 57.07553 -136.05725 35361 ft 507 kts 134°
2026-05-03 23:52 57.03228 -135.95534 35372 ft 507 kts 134°
2026-05-03 23:52 56.98877 -135.85327 35371 ft 508 kts 134°
2026-05-03 23:53 56.94504 -135.75107 35356 ft 507 kts 134°
2026-05-03 23:53 56.90159 -135.64988 35366 ft 507 kts 134°
2026-05-03 23:54 56.85802 -135.54889 35386 ft 507 kts 134°
2026-05-03 23:54 56.81477 -135.44683 35368 ft 508 kts 133°
2026-05-03 23:55 56.77207 -135.34459 35356 ft 508 kts 132°
2026-05-03 23:55 56.72911 -135.24211 35359 ft 507 kts 133°
2026-05-03 23:56 56.68603 -135.14007 35363 ft 507 kts 133°
2026-05-03 23:56 56.64314 -135.03906 35361 ft 508 kts 133°
2026-05-03 23:57 56.59967 -134.93719 35353 ft 508 kts 133°
2026-05-03 23:57 56.55646 -134.83633 35368 ft 508 kts 133°
2026-05-03 23:58 56.51316 -134.73544 35373 ft 508 kts 133°
2026-05-03 23:58 56.46937 -134.63416 35364 ft 508 kts 133°
2026-05-03 23:59 56.42595 -134.53410 35358 ft 508 kts 133°
2026-05-03 23:59 56.38223 -134.43370 35349 ft 508 kts 133°
2026-05-04 00:00 56.33868 -134.33407 35359 ft 507 kts 133°
2026-05-04 00:00 56.29477 -134.23406 35335 ft 507 kts 133°
2026-05-04 00:01 56.25112 -134.13487 35367 ft 508 kts 133°
2026-05-04 00:01 56.20704 -134.03551 35337 ft 509 kts 133°
2026-05-04 00:02 56.16271 -133.93578 35333 ft 509 kts 133°
2026-05-04 00:02 56.11865 -133.83704 35332 ft 508 kts 133°
2026-05-04 00:03 56.07430 -133.73807 35333 ft 507 kts 133°
2026-05-04 00:03 56.03017 -133.63999 35327 ft 506 kts 133°
2026-05-04 00:04 55.98589 -133.54199 35333 ft 506 kts 133°
2026-05-04 00:04 55.94177 -133.44472 35328 ft 506 kts 133°
2026-05-04 00:05 55.89741 -133.34735 35329 ft 506 kts 133°
2026-05-04 00:05 55.85302 -133.25027 35322 ft 506 kts 132°
2026-05-04 00:06 55.80854 -133.15338 35326 ft 507 kts 133°
2026-05-04 00:06 55.76372 -133.05617 35322 ft 507 kts 133°
2026-05-04 00:07 55.71893 -132.95938 35329 ft 509 kts 133°
2026-05-04 00:07 55.67397 -132.86269 35302 ft 512 kts 132°
2026-05-04 00:08 55.62844 -132.76504 35306 ft 511 kts 132°
2026-05-04 00:08 55.58323 -132.66847 35303 ft 511 kts 132°
2026-05-04 00:09 55.53768 -132.57164 35308 ft 510 kts 133°
2026-05-04 00:09 55.49259 -132.47614 35293 ft 508 kts 132°
2026-05-04 00:10 55.44714 -132.38023 35291 ft 508 kts 132°
2026-05-04 00:10 55.40201 -132.28539 35302 ft 507 kts 132°
2026-05-04 00:11 55.35644 -132.19000 35298 ft 508 kts 132°
2026-05-04 00:11 55.31112 -132.09548 35266 ft 507 kts 132°
2026-05-04 00:12 55.26550 -132.00073 35284 ft 507 kts 132°
2026-05-04 00:12 55.21985 -131.90626 35284 ft 507 kts 132°
2026-05-04 00:13 55.17437 -131.81249 35278 ft 507 kts 132°
2026-05-04 00:13 55.12865 -131.71853 35268 ft 508 kts 131°
2026-05-04 00:14 55.08297 -131.62499 35270 ft 508 kts 131°
2026-05-04 00:14 55.03466 -131.53495 35257 ft 506 kts 140°
2026-05-04 00:15 54.98154 -131.45409 35254 ft 506 kts 142°
2026-05-04 00:15 54.92816 -131.37472 35235 ft 506 kts 141°
2026-05-04 00:16 54.87520 -131.29486 35223 ft 506 kts 141°
2026-05-04 00:16 54.82202 -131.21401 35226 ft 506 kts 141°
2026-05-04 00:17 54.76923 -131.13377 35228 ft 506 kts 141°
2026-05-04 00:17 54.71616 -131.05343 35216 ft 506 kts 140°
2026-05-04 00:18 54.66336 -130.97385 35225 ft 505 kts 140°
2026-05-04 00:18 54.61023 -130.89408 35234 ft 505 kts 140°
2026-05-04 00:19 54.55744 -130.81510 35227 ft 504 kts 140°
2026-05-04 00:19 54.50415 -130.73566 35229 ft 504 kts 141°
2026-05-04 00:20 54.45122 -130.65704 35232 ft 503 kts 141°
2026-05-04 00:20 54.39843 -130.57891 35232 ft 503 kts 141°
2026-05-04 00:21 54.34514 -130.50032 35231 ft 503 kts 141°
2026-05-04 00:21 54.29225 -130.42257 35232 ft 503 kts 140°
2026-05-04 00:22 54.23895 -130.34451 35227 ft 503 kts 141°
2026-05-04 00:22 54.18598 -130.26721 35229 ft 503 kts 141°
2026-05-04 00:23 54.13250 -130.18944 35214 ft 503 kts 141°
2026-05-04 00:23 54.07941 -130.11246 35212 ft 503 kts 140°
2026-05-04 00:24 54.02587 -130.03515 35213 ft 502 kts 141°
2026-05-04 00:24 53.97275 -129.95875 35187 ft 502 kts 140°
2026-05-04 00:25 53.91953 -129.88252 35191 ft 501 kts 141°
2026-05-04 00:25 53.86656 -129.80666 35188 ft 499 kts 140°
2026-05-04 00:26 53.81319 -129.73053 35180 ft 499 kts 140°
2026-05-04 00:26 53.75995 -129.65520 35157 ft 501 kts 141°
2026-05-04 00:27 53.70628 -129.57922 35150 ft 502 kts 140°
2026-05-04 00:27 53.65285 -129.50386 35155 ft 503 kts 140°
2026-05-04 00:28 53.59925 -129.42854 35105 ft 503 kts 141°
2026-05-04 00:28 53.54551 -129.35249 35107 ft 502 kts 140°
2026-05-04 00:29 53.49189 -129.27798 35110 ft 502 kts 141°
2026-05-04 00:29 53.43791 -129.20340 35096 ft 500 kts 140°
2026-05-04 00:30 53.38449 -129.12949 35088 ft 498 kts 140°
2026-05-04 00:30 53.33118 -129.05583 35083 ft 497 kts 140°
2026-05-04 00:31 53.27776 -128.98235 35091 ft 495 kts 140°
2026-05-04 00:31 53.22476 -128.90952 35082 ft 496 kts 140°
2026-05-04 00:32 53.17151 -128.83673 35070 ft 496 kts 140°
2026-05-04 00:32 53.11796 -128.76353 35069 ft 496 kts 140°
2026-05-04 00:33 53.03750 -128.65454 35061 ft 498 kts 140°
2026-05-04 00:34 52.98397 -128.58221 35049 ft 498 kts 140°
2026-05-04 00:34 52.93030 -128.51001 35081 ft 496 kts 140°
2026-05-04 00:35 52.87671 -128.43780 35068 ft 498 kts 140°
2026-05-04 00:35 52.82260 -128.36541 35063 ft 500 kts 140°
2026-05-04 00:36 52.76851 -128.29343 35059 ft 501 kts 140°
2026-05-04 00:36 52.72304 -128.23301 35041 ft 503 kts 140°
2026-05-04 00:37 52.65952 -128.14866 35041 ft 503 kts 140°
2026-05-04 00:37 52.61423 -128.08879 35047 ft 503 kts 140°
2026-05-04 00:38 52.55938 -128.01668 35046 ft 502 kts 140°
2026-05-04 00:38 52.50505 -127.94534 35037 ft 501 kts 140°
2026-05-04 00:39 52.45076 -127.87426 35047 ft 498 kts 140°
2026-05-04 00:39 52.39657 -127.80350 35040 ft 496 kts 140°
2026-05-04 00:40 52.35187 -127.74542 35030 ft 495 kts 140°
2026-05-04 00:40 52.28901 -127.66387 35042 ft 494 kts 140°
2026-05-04 00:41 52.23497 -127.59410 35036 ft 494 kts 140°
2026-05-04 00:41 52.18123 -127.52498 35005 ft 492 kts 140°
2026-05-04 00:42 52.12733 -127.45578 35031 ft 493 kts 140°
2026-05-04 00:42 52.07353 -127.38686 35034 ft 495 kts 140°
2026-05-04 00:43 52.01906 -127.31736 35030 ft 497 kts 140°
2026-05-04 00:43 51.96473 -127.24813 35030 ft 500 kts 140°
2026-05-04 00:44 51.90992 -127.17876 34999 ft 499 kts 140°
2026-05-04 00:44 51.85577 -127.11047 34988 ft 491 kts 140°
2026-05-04 00:45 51.80192 -127.04261 35028 ft 488 kts 140°
2026-05-04 00:45 51.74818 -126.97508 34987 ft 488 kts 140°
2026-05-04 00:46 51.69464 -126.90820 34992 ft 488 kts 140°
2026-05-04 00:46 51.64068 -126.84083 35023 ft 496 kts 140°
2026-05-04 00:47 51.58586 -126.77261 34990 ft 496 kts 140°
2026-05-04 00:47 51.53144 -126.70506 34983 ft 495 kts 140°
2026-05-04 00:48 51.47702 -126.63778 34984 ft 495 kts 140°
2026-05-04 00:48 51.42251 -126.57063 34990 ft 494 kts 140°
2026-05-04 00:49 51.36821 -126.50385 35002 ft 492 kts 140°
2026-05-04 00:49 51.31380 -126.43719 34996 ft 492 kts 140°
2026-05-04 00:50 51.25938 -126.37077 35002 ft 491 kts 140°
2026-05-04 00:50 51.20537 -126.30503 35037 ft 489 kts 140°
2026-05-04 00:51 51.15118 -126.23925 35007 ft 489 kts 140°
2026-05-04 00:51 51.09674 -126.17332 35002 ft 491 kts 140°
2026-05-04 00:52 51.04247 -126.10787 35053 ft 492 kts 140°
2026-05-04 00:52 50.98772 -126.04202 34991 ft 493 kts 140°
2026-05-04 00:53 50.93293 -125.97633 34974 ft 492 kts 140°
2026-05-04 00:53 50.87871 -125.91138 34984 ft 491 kts 139°
2026-05-04 00:54 50.82390 -125.84621 34981 ft 490 kts 140°
2026-05-04 00:54 50.76924 -125.78148 34968 ft 491 kts 139°
2026-05-04 00:55 50.71483 -125.71677 34971 ft 490 kts 140°
2026-05-04 00:55 50.66021 -125.65217 34958 ft 489 kts 140°
2026-05-04 00:56 50.60609 -125.58836 34928 ft 485 kts 139°
2026-05-04 00:56 50.55204 -125.52496 34955 ft 483 kts 139°
2026-05-04 00:57 50.49837 -125.46215 34957 ft 483 kts 139°
2026-05-04 00:57 50.44462 -125.39940 34951 ft 483 kts 139°
2026-05-04 00:58 50.39032 -125.33618 34944 ft 484 kts 140°
2026-05-04 00:58 50.33622 -125.27347 34900 ft 484 kts 140°
2026-05-04 00:59 50.28223 -125.21114 34935 ft 485 kts 140°
2026-05-04 00:59 50.22776 -125.14810 34954 ft 487 kts 139°
2026-05-04 01:00 50.17332 -125.08537 34933 ft 488 kts 139°
2026-05-04 01:00 50.11828 -125.02221 34941 ft 489 kts 140°
2026-05-04 01:01 50.06362 -124.95969 34950 ft 489 kts 140°
2026-05-04 01:01 50.00864 -124.89699 34953 ft 489 kts 140°
2026-05-04 01:02 49.95370 -124.83451 34930 ft 487 kts 140°
2026-05-04 01:02 49.89927 -124.77279 34939 ft 485 kts 140°
2026-05-04 01:03 49.84512 -124.71156 34958 ft 482 kts 139°
2026-05-04 01:03 49.79078 -124.65028 34961 ft 480 kts 139°
2026-05-04 01:04 49.73708 -124.58987 34966 ft 478 kts 139°
2026-05-04 01:04 49.68347 -124.52975 34954 ft 477 kts 139°
2026-05-04 01:05 49.62966 -124.46956 34972 ft 476 kts 139°
2026-05-04 01:05 49.57592 -124.40963 34955 ft 476 kts 139°
2026-05-04 01:06 49.52252 -124.35023 34942 ft 476 kts 139°
2026-05-04 01:06 49.46869 -124.29053 34938 ft 477 kts 139°
2026-05-04 01:07 49.41497 -124.23111 34942 ft 477 kts 139°
2026-05-04 01:07 49.36077 -124.17132 34924 ft 478 kts 139°
2026-05-04 01:08 49.30688 -124.11206 34926 ft 478 kts 139°
2026-05-04 01:08 49.25297 -124.05292 34943 ft 478 kts 139°
2026-05-04 01:09 49.19861 -123.99346 34931 ft 479 kts 139°
2026-05-04 01:09 49.14453 -123.93447 34934 ft 478 kts 139°
2026-05-04 01:10 49.09028 -123.87544 34936 ft 478 kts 139°
2026-05-04 01:10 49.03900 -123.81980 34944 ft 477 kts 139°
2026-05-04 01:16 49.00053 -123.77814 34914 ft 477 kts 139°
2026-05-04 01:17 48.94626 -123.71952 34923 ft 476 kts 139°
2026-05-04 01:17 48.89249 -123.66157 34804 ft 477 kts 139°
2026-05-04 01:17 48.86510 -123.63207 34269 ft 482 kts 139°
2026-05-04 01:18 48.83812 -123.60311 33760 ft 477 kts 139°
2026-05-04 01:18 48.81102 -123.57406 33174 ft 473 kts 139°
2026-05-04 01:18 48.78420 -123.54531 32646 ft 467 kts 140°
2026-05-04 01:18 48.75776 -123.51701 32145 ft 462 kts 140°
2026-05-04 01:19 48.73197 -123.48947 31648 ft 457 kts 140°
2026-05-04 01:19 48.70563 -123.46258 31185 ft 453 kts 143°
2026-05-04 01:19 48.67889 -123.43738 30711 ft 449 kts 145°
2026-05-04 01:19 48.65215 -123.41299 30228 ft 445 kts 146°
2026-05-04 01:20 48.62598 -123.38921 29714 ft 441 kts 146°
2026-05-04 01:20 48.60851 -123.37328 29347 ft 439 kts 146°
2026-05-04 01:20 48.57410 -123.34164 28690 ft 432 kts 146°
2026-05-04 01:20 48.54856 -123.31801 28197 ft 428 kts 146°
2026-05-04 01:21 48.52330 -123.29457 27718 ft 423 kts 146°
2026-05-04 01:21 48.49826 -123.27133 27240 ft 420 kts 146°
2026-05-04 01:21 48.47339 -123.24826 26766 ft 416 kts 146°
2026-05-04 01:21 48.44911 -123.22576 26303 ft 413 kts 146°
2026-05-04 01:22 48.42463 -123.20311 25842 ft 410 kts 146°
2026-05-04 01:22 48.40021 -123.18052 25375 ft 407 kts 146°
2026-05-04 01:22 48.37641 -123.15857 24923 ft 405 kts 146°
2026-05-04 01:22 48.35231 -123.13638 24444 ft 403 kts 146°
2026-05-04 01:23 48.32834 -123.11435 23933 ft 403 kts 147°
2026-05-04 01:23 48.30458 -123.09257 23442 ft 403 kts 147°
2026-05-04 01:23 48.28058 -123.07061 22896 ft 400 kts 146°
2026-05-04 01:23 48.25707 -123.04910 22427 ft 397 kts 147°
2026-05-04 01:24 48.23361 -123.02753 21972 ft 393 kts 146°
2026-05-04 01:24 48.21028 -123.00618 21508 ft 389 kts 146°
2026-05-04 01:24 48.18722 -122.98515 21061 ft 386 kts 147°
2026-05-04 01:24 48.16459 -122.96452 20627 ft 383 kts 147°
2026-05-04 01:25 48.14179 -122.94373 20188 ft 379 kts 147°
2026-05-04 01:25 48.11958 -122.92346 19750 ft 376 kts 147°
2026-05-04 01:25 48.09717 -122.90303 19316 ft 374 kts 147°
2026-05-04 01:25 48.07499 -122.88284 18888 ft 371 kts 147°
2026-05-04 01:26 48.06038 -122.86957 18601 ft 370 kts 147°
2026-05-04 01:26 48.03125 -122.84314 18028 ft 367 kts 148°
2026-05-04 01:26 48.01680 -122.83004 17737 ft 365 kts 148°
2026-05-04 01:26 47.99518 -122.81046 17345 ft 362 kts 148°
2026-05-04 01:27 47.96671 -122.78466 16798 ft 358 kts 148°
2026-05-04 01:27 47.95232 -122.77166 16514 ft 356 kts 148°
2026-05-04 01:27 47.93138 -122.75275 16089 ft 354 kts 148°
2026-05-04 01:27 47.91030 -122.73372 15670 ft 351 kts 148°
2026-05-04 01:28 47.88935 -122.71489 15242 ft 349 kts 148°
2026-05-04 01:28 47.86879 -122.69639 14842 ft 347 kts 148°
2026-05-04 01:28 47.84807 -122.67777 14437 ft 346 kts 147°
2026-05-04 01:28 47.82749 -122.65931 14025 ft 345 kts 148°
2026-05-04 01:29 47.80692 -122.64083 13593 ft 344 kts 148°
2026-05-04 01:29 47.78666 -122.62262 13151 ft 342 kts 148°
2026-05-04 01:29 47.76631 -122.60437 12720 ft 340 kts 148°
2026-05-04 01:29 47.74610 -122.58630 12527 ft 332 kts 148°
2026-05-04 01:30 47.72654 -122.56885 12353 ft 322 kts 149°
2026-05-04 01:30 47.70719 -122.55314 12017 ft 320 kts 154°
2026-05-04 01:30 47.68698 -122.53937 11658 ft 318 kts 156°
2026-05-04 01:30 47.66668 -122.52600 11299 ft 316 kts 156°
2026-05-04 01:31 47.64694 -122.51285 10960 ft 314 kts 155°
2026-05-04 01:31 47.62689 -122.49928 10612 ft 313 kts 155°
2026-05-04 01:31 47.60735 -122.48595 10261 ft 312 kts 155°
2026-05-04 01:31 47.58780 -122.47258 10102 ft 303 kts 155°
2026-05-04 01:32 47.56802 -122.46320 9866 ft 297 kts 176°
2026-05-04 01:32 47.54769 -122.46313 9603 ft 293 kts 182°
2026-05-04 01:32 47.52730 -122.46384 9302 ft 291 kts 182°
2026-05-04 01:32 47.50716 -122.46428 9015 ft 288 kts 181°
2026-05-04 01:33 47.48713 -122.46458 8760 ft 285 kts 181°
2026-05-04 01:33 47.46758 -122.46479 8494 ft 283 kts 181°
2026-05-04 01:33 47.44792 -122.46497 8222 ft 280 kts 181°
2026-05-04 01:33 47.42840 -122.46514 7956 ft 278 kts 181°
2026-05-04 01:34 47.40931 -122.46531 7688 ft 276 kts 181°
2026-05-04 01:34 47.39014 -122.46547 7427 ft 274 kts 181°
2026-05-04 01:34 47.37134 -122.46566 7171 ft 271 kts 181°
2026-05-04 01:34 47.35255 -122.46584 7029 ft 265 kts 181°
2026-05-04 01:35 47.33448 -122.46600 6984 ft 253 kts 181°
2026-05-04 01:35 47.31694 -122.46614 6981 ft 251 kts 180°
2026-05-04 01:35 47.29974 -122.46628 6979 ft 249 kts 181°
2026-05-04 01:35 47.28229 -122.46617 6921 ft 249 kts 180°
2026-05-04 01:36 47.26497 -122.46440 6842 ft 248 kts 169°
2026-05-04 01:36 47.24845 -122.45903 6797 ft 244 kts 167°
2026-05-04 01:36 47.23189 -122.45344 6732 ft 243 kts 168°
2026-05-04 01:36 47.21503 -122.45246 6666 ft 243 kts 189°
2026-05-04 01:37 47.19841 -122.45593 6619 ft 245 kts 188°
2026-05-04 01:37 47.18138 -122.45930 6570 ft 248 kts 189°
2026-05-04 01:37 47.16425 -122.46273 6488 ft 247 kts 188°
2026-05-04 01:37 47.14725 -122.46061 6154 ft 248 kts 154°
2026-05-04 01:38 47.13518 -122.44432 5974 ft 234 kts 112°
2026-05-04 01:38 47.13309 -122.42225 5830 ft 213 kts 72°
2026-05-04 01:38 47.13834 -122.40247 5628 ft 205 kts 65°
2026-05-04 01:38 47.14512 -122.38435 5491 ft 199 kts 47°
2026-05-04 01:39 47.15518 -122.37055 5409 ft 201 kts 37°
2026-05-04 01:39 47.16629 -122.35806 5311 ft 205 kts 35°
2026-05-04 01:39 47.17783 -122.34522 5207 ft 206 kts 36°
2026-05-04 01:39 47.18914 -122.33258 5091 ft 206 kts 35°
2026-05-04 01:40 47.20145 -122.32224 4905 ft 206 kts 12°
2026-05-04 01:40 47.21564 -122.31991 4686 ft 205 kts
2026-05-04 01:40 47.22994 -122.31961 4416 ft 203 kts
2026-05-04 01:40 47.24404 -122.31957 4106 ft 202 kts
2026-05-04 01:41 47.25801 -122.31950 3847 ft 198 kts
2026-05-04 01:41 47.27152 -122.31943 3608 ft 194 kts
2026-05-04 01:41 47.28480 -122.31933 3373 ft 185 kts
2026-05-04 01:41 47.29777 -122.31921 3118 ft 184 kts
2026-05-04 01:42 47.31022 -122.31912 2880 ft 177 kts
2026-05-04 01:42 47.32262 -122.31903 2660 ft 178 kts
2026-05-04 01:42 47.33513 -122.31889 2428 ft 180 kts
2026-05-04 01:42 47.34759 -122.31880 2184 ft 173 kts 360°
2026-05-04 01:43 47.35902 -122.31871 1964 ft 160 kts
2026-05-04 01:43 47.36990 -122.31863 1775 ft 154 kts 359°
2026-05-04 01:43 47.38077 -122.31854 1577 ft 154 kts 359°
2026-05-04 01:43 47.39118 -122.31847 1370 ft 147 kts
2026-05-04 01:44 47.40140 -122.31837 1176 ft 148 kts
2026-05-04 01:44 47.41165 -122.31830 996 ft 143 kts 359°
2026-05-04 01:44 47.42139 -122.31811 751 ft 138 kts
2026-05-04 01:44 47.43070 -122.31803 585 ft 129 kts 359°
2026-05-04 01:45 47.44011 -122.31819 428 ft 137 kts
2026-05-04 01:45 47.44916 -122.31799 390 ft 115 kts 360°
2026-05-04 01:45 47.45782 -122.31760 413 ft 25 kts 11°
2026-05-04 01:46 47.45902 -122.31687 412 ft 17 kts 26°
2026-05-04 01:46 47.45984 -122.31565 416 ft 16 kts 51°
2026-05-04 01:46 47.46012 -122.31406 424 ft 16 kts 87°
2026-05-04 01:46 47.46012 -122.31248 424 ft 15 kts 89°
2026-05-04 01:47 47.46014 -122.31093 432 ft 15 kts 88°
2026-05-04 01:47 47.46010 -122.30922 434 ft 18 kts 92°
2026-05-04 01:47 47.46011 -122.30745 431 ft 14 kts 91°
2026-05-04 01:47 47.45976 -122.30628 432 ft 13 kts 153°
2026-05-04 01:48 47.45887 -122.30618 425 ft 13 kts 181°
2026-05-04 01:48 47.45798 -122.30620 429 ft 13 kts 181°
2026-05-04 01:48 47.45712 -122.30621 432 ft 13 kts 181°
2026-05-04 01:48 47.45625 -122.30622 429 ft 13 kts 177°
2026-05-04 01:49 47.45534 -122.30618 424 ft 14 kts 180°
2026-05-04 01:49 47.45430 -122.30621 425 ft 16 kts 182°
2026-05-04 01:49 47.45303 -122.30625 419 ft 20 kts 180°
2026-05-04 01:49 47.45154 -122.30624 412 ft 20 kts 180°
2026-05-04 01:50 47.45044 -122.30558 413 ft 18 kts 97°
2026-05-04 01:50 47.45042 -122.30376 413 ft 18 kts 91°
2026-05-04 01:50 47.45002 -122.30214 411 ft 17 kts 128°
2026-05-04 01:50 47.44921 -122.30075 407 ft 18 kts 130°
2026-05-04 01:51 47.44814 -122.29983 407 ft 18 kts 173°
2026-05-04 01:51 47.44707 -122.30062 402 ft 17 kts 227°
2026-05-04 01:51 47.44684 -122.30209 405 ft 12 kts 283°
2026-05-04 01:51 47.44695 -122.30282 404 ft 6 kts 255°
2026-05-04 01:52 47.44674 -122.30322 402 ft 2 kts 224°
2026-05-04 01:52 47.44661 -122.30339 403 ft 2 kts 223°
2026-05-04 01:52 47.44656 -122.30346 403 ft 0 kts 223°